Powrót do katalogu

SL-12 DEB

AktywnyHEO
NORAD 44588·DEBRIS·🇷🇺 Russia

Wystrzelony May 20, 1999 z Baikonur Cosmodrome

Loading…

Następne Przeloty (najbliższe 24 godziny)

TLE

ŚwieżeSource: Space-Track

Epoka: Sep 14, 2026, 04:14 UTC

1 44588U 99027E   26257.17693072 -.00000099  00000-0  00000-0 0  9992
2 44588   7.4291 115.6098 3173177 170.4546 356.1424  1.46031417 68354

Śledź SL-12 DEB w czasie rzeczywistym z AllMySat

Download on the App Store